Cloud_Cover
100 100 100 100 100 100 100 100 100 100 100 100 100 100 100 100 29 18 11 3 0 0 0 0 0 1 2 0 0 4 2 0 5 5 4 3 5 0 3 5 1 0 0 0 0 2 15
100 100 100 100 100 100 100 100 100 100 100 100 100 100 100 100 15 12 1 0 0 0 0 0 0 0 0 1 0 0 0 0 0 0 0 0 0 0 0 2 5 5 0 0 0 0 0
100 100 100 100 100 100 100 100 100 100 100 100 100 100 41 100 33 15 0 0 0 0 0 0 0 0 0 0 0 0 0 0 0 0 0 2 3 0 0 0 4 0 0 0 0 0 0
100 100 100 100 100 100 100 100 100 100 100 100 100 100 100 100 100 58 32 25 0 0 0 0 0 0 0 0 0 0 0 0 0 0 0 0 5 4 0 0 0 0 0 0 0 0 0
100 100 100 100 100 100 100 100 100 100 100 100 100 100 100 100 100 100 100 50 0 0 0 0 0 0 0 0 0 0 0 0 0 0 0 0 0 0 0 0 0 0 0 0 0 0 0
100 100 100 100 100 100 100 100 100 100 100 100 96 57 12 100 100 100 65 5 2 0 0 0 0 0 0 0 0 0 0 0 0 0 0 0 0 0 0 5 4 0 0 0 0 0 0
100 100 100 100 100 100 100 100 100 100 79 2 7 9 36 96 100 100 17 5 5 5 0 0 0 0 0 0 0 0 0 0 0 0 0 1 0 2 0 0 0 0 0 0 0 0 0
100 100 100 100 100 100 100 100 98 0 3 23 57 98 100 100 100 39 6 5 5 5 0 0 0 0 0 0 0 0 0 0 0 0 0 2 17 2 0 0 0 0 0 0 0 0 0
100 100 100 100 100 100 99 48 0 5 40 91 100 100 100 60 9 5 5 57 5 3 5 1 0 0 0 0 0 0 0 0 0 0 0 0 2 0 0 0 0 0 0 0 0 0 0
100 100 100 100 94 37 1 0 3 16 58 100 100 100 100 94 0 3 4 5 5 5 5 4 0 0 0 0 0 0 0 0 0 0 0 0 0 0 0 0 0 0 0 0 0 0 0
100 95 100 95 2 0 0 0 14 33 92 100 100 100 100 89 2 0 3 5 5 5 5 1 0 0 0 0 0 0 0 0 0 0 0 0 0 0 0 0 0 0 0 0 0 0 0
2 33 100 50 0 1 0 0 5 34 100 98 58 100 98 32 0 0 0 5 0 0 1 4 3 0 0 0 0 0 0 0 0 0 0 0 0 0 0 0 0 0 0 0 0 0 0
0 0 0 0 4 6 0 0 0 68 89 31 2 43 96 0 0 0 0 3 0 0 1 0 0 0 0 0 0 0 0 0 0 0 0 0 0 0 0 0 0 0 0 0 0 0 0
98 16 0 0 0 4 0 0 1 78 0 0 29 22 6 2 0 0 0 0 0 0 0 0 0 0 0 0 0 0 0 0 0 0 0 0 0 0 0 0 0 0 0 0 0 0 0
100 100 100 75 33 0 0 0 0 0 0 0 1 0 0 0 0 0 0 0 0 0 0 0 0 0 0 0 0 0 0 0 0 0 0 0 0 0 0 0 0 0 0 0 0 0 0
100 100 100 100 95 31 0 0 0 0 0 5 12 0 0 0 0 0 0 0 0 0 0 0 0 0 0 0 0 0 0 0 0 0 0 0 0 0 0 0 0 0 0 0 0 0 0
57 100 100 100 100 98 0 0 0 0 0 0 0 0 0 0 0 0 0 0 0 0 0 0 0 0 0 0 0 0 0 0 0 0 0 0 0 0 0 0 0 0 0 0 0 0 0
23 100 100 100 100 99 0 0 0 0 0 8 0 0 0 0 0 0 0 0 0 0 0 0 0 0 0 0 0 0 0 0 0 0 0 0 0 0 0 0 0 0 0 0 0 0 0
56 100 100 100 100 100 0 0 0 0 21 99 0 0 0 0 0 0 0 0 0 0 0 0 0 0 0 0 0 0 0 0 0 0 0 0 0 0 0 0 0 0 0 0 0 0 0
89 99 20 56 58 100 18 0 0 0 1 62 0 0 0 0 0 0 0 0 0 0 0 0 0 0 0 0 0 0 0 0 0 0 0 0 0 0 0 0 0 0 0 0 0 0 0
58 91 100 19 3 77 5 0 0 0 0 26 0 0 0 1 0 0 0 0 0 0 0 0 0 0 0 0 0 0 0 0 0 0 0 0 0 0 0 0 0 0 0 0 0 0 0
100 83 24 17 0 0 0 0 0 0 0 0 0 1 1 0 0 0 0 0 0 0 0 0 0 0 0 0 0 0 0 0 0 0 0 0 0 0 0 0 0 0 0 0 0 0 0
100 100 100 98 93 47 29 83 92 85 0 18 13 1 24 2 4 1 0 0 0 0 0 0 0 0 0 0 0 0 0 0 0 0 0 0 0 0 0 0 0 0 0 0 0 0 0
100 100 100 100 100 100 100 100 100 100 98 83 96 96 99 47 12 15 8 1 0 0 0 0 0 0 0 0 0 0 0 0 0 0 0 0 0 0 0 0 0 0 0 0 0 0 0
100 100 100 100 100 100 66 100 100 100 100 100 100 99 100 77 61 6 54 79 18 3 0 0 0 0 0 0 0 1 0 2 0 0 0 0 0 0 0 0 0 0 0 0 0 0 0
100 100 100 100 100 100 100 100 100 100 100 92 16 85 100 100 47 98 33 100 54 54 0 0 0 0 0 0 0 0 0 19 6 2 5 4 0 0 0 0 0 0 0 0 0 0 0
100 100 100 100 100 100 100 100 100 100 100 96 84 79 100 100 100 100 83 100 100 100 18 2 0 0 0 0 0 0 1 4 5 5 5 5 2 5 5 0 0 0 0 0 0 0 0
73 35 100 100 100 100 100 100 100 100 100 82 9 31 99 100 100 100 94 100 100 100 100 32 4 0 0 0 0 1 5 5 5 4 5 5 5 5 2 0 0 0 0 0 0 0 0
100 85 38 100 100 100 100 100 100 100 100 100 63 97 100 100 100 100 100 100 100 100 100 100 95 4 0 0 0 0 12 11 5 16 3 4 5 5 5 5 4 0 0 3 5 5 5